Powrót do katalogu

STARLINK-32939

AktywnyŁącznośćVLEO
NORAD 63149·PAYLOAD·🇺🇸 United States

Wystrzelony Mar 3, 2025 z Cape Canaveral Space Force Station

Loading…

Następne Przeloty (najbliższe 24 godziny)

TLE

ŚwieżeSource: CelesTrak SupGP

Epoka: Sep 14, 2026, 14:51 UTC

1 63149C 25043T   26257.61923611 -.00072310  00000+0 -26195-2 0  2574
2 63149  43.0012  29.0602 0001448 272.4612 278.1639 15.27609487    11

Śledź STARLINK-32939 w czasie rzeczywistym z AllMySat

Download on the App Store